Location: Newark
(5.0949°S, 42.8042°W)
Time: 03:28:43
(UTC+00:00)

OTV 5 (USA 277) - Visible Passes

Search period start: 15 October 2019 00:00
Search period end: 25 October 2019 00:00
Orbit: 310 x 324 km, 54.5° (Epoch: 08 October)

Date Brightness Start Highest point End Pass type
(mag) Time Alt. Az. Time Alt. Az. Time Alt. Az.
19 Oct ? 22:27:01 10° SW 22:27:23 13° SW 22:27:23 13° SW visible
20 Oct ? 21:08:14 10° SSE 21:09:56 15° SE 21:11:32 10° E visible
21 Oct ? 21:21:44 10° SSW 21:24:26 82° ESE 21:26:42 13° NE visible
22 Oct ? 21:37:00 10° WSW 21:38:54 17° WNW 21:40:47 10° NNW visible
